,,Stat5,,Stat1,,Stat2,,Stat3,,Stat4,,Wind1,,Wind1,
time,status,PA1M_AVG,status,PR1M_SUM,status,RH1M_AVG,status,SR1M_AVG,status,TA1M_AVG,status,W1dAve1m,status,W1sAve1m,
2003-05-23, 00:00:00,VALID,918.811,VALID,0,VALID,99.8909,VALID,-0.0169808,VALID,18.7182,VALID,93,VALID,0.315173,
2003-05-23, 00:01:00,VALID,918.812,VALID,0,VALID,99.8871,VALID,0,VALID,18.7187,VALID,128,VALID,0.775288,
2003-05-23, 00:02:00,VALID,918.812,VALID,0,VALID,99.868,VALID,0.0339617,VALID,18.6792,VALID,130,VALID,0.915587,
2003-05-23, 00:03:00,VALID,918.815,VALID,0,VALID,99.8591,VALID,0,VALID,18.6598,VALID,116,VALID,1.25549,
2003-05-23, 00:04:00,VALID,918.794,VALID,0,VALID,99.854,VALID,-0.0169808,VALID,18.6377,VALID,125,VALID,0.854307,
2003-05-23, 00:05:00,VALID,918.783,VALID,0,VALID,99.8769,VALID,0.0339617,VALID,18.6112,VALID,141,VALID,0.844151,
2003-05-23, 00:06:00,VALID,918.759,VALID,0,VALID,99.8922,VALID,0.0169808,VALID,18.6077,VALID,112,VALID,1.00908,
2003-05-23, 00:07:00,VALID,918.733,VALID,0,VALID,99.9151,VALID,-0.0339617,VALID,18.6213,VALID,134,VALID,1.03594,
2003-05-23, 00:08:00,VALID,918.716,VALID,0,VALID,99.9189,VALID,-0.0169808,VALID,18.6243,VALID,128,VALID,1.03008,
2003-05-23, 00:09:00,VALID,918.694,VALID,0,VALID,99.9379,VALID,0.0169808,VALID,18.6338,VALID,150,VALID,1.05534,
2003-05-23, 00:10:00,VALID,918.691,VALID,0,VALID,99.9354,VALID,-0.0339617,VALID,18.6241,VALID,134,VALID,0.998698,
2003-05-23, 00:11:00,VALID,918.714,VALID,0,VALID,99.9468,VALID,-0.0169808,VALID,18.6245,VALID,100,VALID,0.585503,
2003-05-23, 00:12:00,VALID,918.715,VALID,0,VALID,99.9456,VALID,0.0169808,VALID,18.6312,VALID,118,VALID,0.694901,
2003-05-23, 00:13:00,VALID,918.728,VALID,0,VALID,99.9468,VALID,0.0169808,VALID,18.6141,VALID,90,VALID,0.827703,
2003-05-23, 00:14:00,VALID,918.725,VALID,0,VALID,99.9456,VALID,0,VALID,18.6114,VALID,106,VALID,0.659152,
2003-05-23, 00:15:00,VALID,918.721,VALID,0,VALID,99.9443,VALID,-0.0169808,VALID,18.5853,VALID,96,VALID,0.562723,
2003-05-23, 00:16:00,VALID,918.697,VALID,0,VALID,99.9367,VALID,0,VALID,18.5664,VALID,94,VALID,0.815173,
2003-05-23, 00:17:00,VALID,918.677,VALID,0,VALID,99.9329,VALID,0.0169808,VALID,18.5272,VALID,104,VALID,1.09415,
2003-05-23, 00:18:00,VALID,918.659,VALID,0,VALID,99.9049,VALID,0,VALID,18.4919,VALID,109,VALID,1.42617,
2003-05-23, 00:19:00,VALID,918.638,VALID,0,VALID,99.8896,VALID,0,VALID,18.4503,VALID,111,VALID,1.36081,
2003-05-23, 00:20:00,VALID,918.648,VALID,0,VALID,99.9062,VALID,-0.0169808,VALID,18.431,VALID,98,VALID,1.16997,
2003-05-23, 00:21:00,VALID,918.64,VALID,0,VALID,99.9214,VALID,0,VALID,18.4247,VALID,112,VALID,1.27324,
2003-05-23, 00:22:00,VALID,918.666,VALID,0,VALID,99.9341,VALID,0,VALID,18.4312,VALID,75,VALID,0.871995,
2003-05-23, 00:23:00,VALID,918.668,VALID,0,VALID,99.9557,VALID,0.0169808,VALID,18.428,VALID,84,VALID,0.727364,
2003-05-23, 00:24:00,VALID,918.673,VALID,0,VALID,99.9659,VALID,0.0169808,VALID,18.4307,VALID,84,VALID,0.287054,
2003-05-23, 00:25:00,VALID,918.682,VALID,0,VALID,99.9799,VALID,0,VALID,18.4367,VALID,118,VALID,0.391797,
2003-05-23, 00:26:00,VALID,918.678,VALID,0,VALID,99.9837,VALID,-0.0169808,VALID,18.4536,VALID,106,VALID,1.33247,
2003-05-23, 00:27:00,VALID,918.659,VALID,0,VALID,99.9941,VALID,-0.0169808,VALID,18.4471,VALID,101,VALID,0.538194,
2003-05-23, 00:28:00,VALID,918.631,VALID,0,VALID,99.9847,VALID,-0.0169808,VALID,18.4213,VALID,96,VALID,0.988064,
2003-05-23, 00:29:00,VALID,918.59,VALID,0,VALID,99.9761,VALID,-0.0169808,VALID,18.392,VALID,116,VALID,0.884252,
2003-05-23, 00:30:00,VALID,918.563,VALID,0,VALID,99.9809,VALID,-0.0339617,VALID,18.389,VALID,138,VALID,0.607052,
2003-05-23, 00:31:00,VALID,918.533,VALID,0,VALID,99.9774,VALID,0,VALID,18.3666,VALID,150,VALID,0.475084,
2003-05-23, 00:32:00,VALID,918.504,VALID,0,VALID,99.9786,VALID,-0.0169808,VALID,18.3633,VALID,135,VALID,0.972768,
2003-05-23, 00:33:00,VALID,918.496,VALID,0,VALID,99.9685,VALID,0.0169808,VALID,18.3214,VALID,141,VALID,0.806949,
2003-05-23, 00:34:00,VALID,918.484,VALID,0,VALID,99.9672,VALID,-0.0169808,VALID,18.299,VALID,121,VALID,1.09713,
2003-05-23, 00:35:00,VALID,918.465,VALID,0,VALID,99.9621,VALID,-0.0169808,VALID,18.26,VALID,131,VALID,0.846037,
2003-05-23, 00:36:00,VALID,918.456,VALID,0,VALID,99.9507,VALID,-0.0339617,VALID,18.2277,VALID,136,VALID,1.48047,
2003-05-23, 00:37:00,VALID,918.449,VALID,0,VALID,99.9583,VALID,-0.0339617,VALID,18.215,VALID,133,VALID,1.32299,
2003-05-23, 00:38:00,VALID,918.447,VALID,0,VALID,99.9634,VALID,-0.0169808,VALID,18.1926,VALID,135,VALID,0.933594,
2003-05-23, 00:39:00,VALID,918.443,VALID,0,VALID,99.9697,VALID,-0.0169808,VALID,18.1462,VALID,95,VALID,0.684375,
2003-05-23, 00:40:00,VALID,918.442,VALID,0,VALID,99.9685,VALID,0.0169808,VALID,18.1363,VALID,101,VALID,0.862981,
2003-05-23, 00:41:00,VALID,918.423,VALID,0,VALID,99.957,VALID,0.101885,VALID,18.1068,VALID,113,VALID,0.910268,
2003-05-23, 00:42:00,VALID,918.411,VALID,0,VALID,99.9545,VALID,0.135847,VALID,18.0648,VALID,104,VALID,1.11523,
2003-05-23, 00:43:00,VALID,918.395,VALID,0,VALID,99.9519,VALID,0.101885,VALID,18.0325,VALID,126,VALID,0.624349,
2003-05-23, 00:44:00,VALID,918.381,VALID,0,VALID,99.957,VALID,0.118866,VALID,18.0067,VALID,127,VALID,0.39388,
2003-05-23, 00:45:00,VALID,918.373,VALID,0,VALID,99.9608,VALID,0.101885,VALID,17.9778,VALID,98,VALID,0.58774,
2003-05-23, 00:46:00,VALID,918.359,VALID,0,VALID,99.9608,VALID,0.118866,VALID,17.955,VALID,121,VALID,0.767681,
2003-05-23, 00:47:00,VALID,918.341,VALID,0,VALID,99.9837,VALID,0.101885,VALID,17.9453,VALID,123,VALID,0.956414,
2003-05-23, 00:48:00,VALID,918.317,VALID,0,VALID,99.9847,VALID,0.135847,VALID,17.9324,VALID,106,VALID,0.876478,
2003-05-23, 00:49:00,VALID,918.322,VALID,0,VALID,99.9799,VALID,0.135847,VALID,17.91,VALID,119,VALID,0.524306,
2003-05-23, 00:50:00,VALID,918.303,VALID,0,VALID,99.9786,VALID,0.101885,VALID,17.8544,VALID,136,VALID,0.601985,
2003-05-23, 00:51:00,VALID,918.291,VALID,0,VALID,99.9837,VALID,0.135847,VALID,17.8549,VALID,109,VALID,0.659951,
2003-05-23, 00:52:00,VALID,918.281,VALID,0,VALID,99.9911,VALID,0.118866,VALID,17.839,VALID,123,VALID,0.517228,
2003-05-23, 00:53:00,VALID,918.259,VALID,0,VALID,99.998,VALID,0.135847,VALID,17.839,VALID,95,VALID,0.5,
2003-05-23, 00:54:00,VALID,918.26,VALID,0,VALID,100,VALID,0.118866,VALID,17.8327,VALID,86,VALID,0.387247,
2003-05-23, 00:55:00,VALID,918.26,VALID,0,VALID,99.999,VALID,0.135847,VALID,17.8002,VALID,76,VALID,0.379729,
2003-05-23, 00:56:00,VALID,918.259,VALID,0,VALID,99.998,VALID,0.135847,VALID,17.7679,VALID,85,VALID,0.675481,
2003-05-23, 00:57:00,VALID,918.278,VALID,0,VALID,100,VALID,0.135847,VALID,17.755,VALID,91,VALID,0.782252,
2003-05-23, 00:58:00,VALID,918.305,VALID,0,VALID,99.9941,VALID,0.152827,VALID,17.7289,VALID,94,VALID,0.860064,
2003-05-23, 00:59:00,VALID,918.32,VALID,0,VALID,99.9969,VALID,0.135847,VALID,17.71,VALID,79,VALID,0.931743,
2003-05-23, 01:00:00,VALID,918.316,VALID,0,VALID,99.9959,VALID,0.118866,VALID,17.671,VALID,87,VALID,1.10008,
2003-05-23, 01:01:00,VALID,918.316,VALID,0,VALID,99.9947,VALID,0.101885,VALID,17.6484,VALID,92,VALID,1.12261,
2003-05-23, 01:02:00,VALID,918.308,VALID,0,VALID,99.999,VALID,0.152827,VALID,17.6489,VALID,104,VALID,1.15386,
2003-05-23, 01:03:00,VALID,918.286,VALID,0,VALID,100,VALID,0.101885,VALID,17.6521,VALID,96,VALID,0.736842,
2003-05-23, 01:04:00,VALID,918.275,VALID,0,VALID,100,VALID,0.118866,VALID,17.6454,VALID,98,VALID,1.21579,
2003-05-23, 01:05:00,VALID,918.257,VALID,0,VALID,100,VALID,0.152827,VALID,17.6519,VALID,98,VALID,1.47768,
2003-05-23, 01:06:00,VALID,918.242,VALID,0,VALID,100,VALID,0.118866,VALID,17.645,VALID,98,VALID,0.960491,
2003-05-23, 01:07:00,VALID,918.231,VALID,0,VALID,100,VALID,0.152827,VALID,17.6357,VALID,94,VALID,1.13836,
2003-05-23, 01:08:00,VALID,918.214,VALID,0,VALID,100,VALID,0.101885,VALID,17.6163,VALID,89,VALID,1.1845,
2003-05-23, 01:09:00,VALID,918.19,VALID,0,VALID,100,VALID,0.152827,VALID,17.62,VALID,90,VALID,1.25625,
2003-05-23, 01:10:00,VALID,918.149,VALID,0,VALID,100,VALID,0.0679233,VALID,17.6039,VALID,99,VALID,1.31497,
2003-05-23, 01:11:00,VALID,918.128,VALID,0,VALID,100,VALID,0,VALID,17.5819,VALID,97,VALID,1.00929,
2003-05-23, 01:12:00,VALID,918.135,VALID,0,VALID,100,VALID,0.0339617,VALID,17.5628,VALID,98,VALID,0.916667,
2003-05-23, 01:13:00,VALID,918.122,VALID,0,VALID,100,VALID,0,VALID,17.5533,VALID,93,VALID,1.05188,
2003-05-23, 01:14:00,VALID,918.121,VALID,0,VALID,100,VALID,0.0339617,VALID,17.5598,VALID,106,VALID,1.20813,
2003-05-23, 01:15:00,VALID,918.127,VALID,0,VALID,100,VALID,0.0169808,VALID,17.5533,VALID,99,VALID,1.29487,
2003-05-23, 01:16:00,VALID,918.115,VALID,0,VALID,100,VALID,0.0169808,VALID,17.5496,VALID,88,VALID,1.30684,
2003-05-23, 01:17:00,VALID,918.115,VALID,0,VALID,100,VALID,0.0169808,VALID,17.5369,VALID,89,VALID,1.19596,
2003-05-23, 01:18:00,VALID,918.1,VALID,0,VALID,100,VALID,-0.0169808,VALID,17.5309,VALID,96,VALID,1.26823,
2003-05-23, 01:19:00,VALID,918.088,VALID,0,VALID,100,VALID,0.0169808,VALID,17.5341,VALID,107,VALID,1.05025,
2003-05-23, 01:20:00,VALID,918.081,VALID,0,VALID,100,VALID,-0.0169808,VALID,17.5284,VALID,114,VALID,1.02817,
2003-05-23, 01:21:00,VALID,918.079,VALID,0,VALID,100,VALID,-0.0169808,VALID,17.5247,VALID,104,VALID,0.804054,
2003-05-23, 01:22:00,VALID,918.07,VALID,0,VALID,100,VALID,-0.0169808,VALID,17.5182,VALID,137,VALID,1.39823,
2003-05-23, 01:23:00,VALID,918.058,VALID,0,VALID,100,VALID,0,VALID,17.5316,VALID,127,VALID,1.23638,
2003-05-23, 01:24:00,VALID,918.059,VALID,0,VALID,100,VALID,0,VALID,17.5279,VALID,143,VALID,0.826686,
2003-05-23, 01:25:00,VALID,918.032,VALID,0,VALID,100,VALID,0.0169808,VALID,17.5372,VALID,134,VALID,1.29307,
2003-05-23, 01:26:00,VALID,918.023,VALID,0,VALID,100,VALID,0.0679233,VALID,17.5335,VALID,128,VALID,0.931021,
2003-05-23, 01:27:00,VALID,918.012,VALID,0,VALID,100,VALID,0.0849042,VALID,17.5203,VALID,102,VALID,1.05469,
2003-05-23, 01:28:00,VALID,918.013,VALID,0,VALID,100,VALID,0.101885,VALID,17.4975,VALID,114,VALID,0.720806,
2003-05-23, 01:29:00,VALID,918.004,VALID,0,VALID,100,VALID,0.0679233,VALID,17.4816,VALID,102,VALID,0.874383,
2003-05-23, 01:30:00,VALID,918.002,VALID,0,VALID,100,VALID,0.0679233,VALID,17.4553,VALID,102,VALID,0.707422,
2003-05-23, 01:31:00,VALID,917.986,VALID,0,VALID,100,VALID,0.0849042,VALID,17.4295,VALID,115,VALID,0.884014,
2003-05-23, 01:32:00,VALID,917.966,VALID,0,VALID,100,VALID,0.0849042,VALID,17.4168,VALID,115,VALID,0.723437,
2003-05-23, 01:33:00,VALID,917.955,VALID,0,VALID,100,VALID,0.0679233,VALID,17.4075,VALID,104,VALID,0.864453,
2003-05-23, 01:34:00,VALID,917.948,VALID,0,VALID,100,VALID,0.0849042,VALID,17.3817,VALID,107,VALID,0.978299,
2003-05-23, 01:35:00,VALID,917.924,VALID,0,VALID,100,VALID,0.0849042,VALID,17.3755,VALID,112,VALID,1.29384,
2003-05-23, 01:36:00,VALID,917.894,VALID,0,VALID,100,VALID,0.101885,VALID,17.3522,VALID,73,VALID,1.15685,
2003-05-23, 01:37:00,VALID,917.863,VALID,0,VALID,100,VALID,0.0509425,VALID,17.3197,VALID,87,VALID,1.10033,
2003-05-23, 01:38:00,VALID,917.827,VALID,0,VALID,100,VALID,0.0509425,VALID,17.3072,VALID,111,VALID,1.01912,
2003-05-23, 01:39:00,VALID,917.824,VALID,0,VALID,100,VALID,0.0849042,VALID,17.2883,VALID,106,VALID,0.618243,
2003-05-23, 01:40:00,VALID,917.815,VALID,0,VALID,100,VALID,0.0849042,VALID,17.2749,VALID,116,VALID,0.832248,
2003-05-23, 01:41:00,VALID,917.817,VALID,0,VALID,100,VALID,0.0339617,VALID,17.259,VALID,95,VALID,1.07855,
2003-05-23, 01:42:00,VALID,917.809,VALID,0,VALID,100,VALID,0.0679233,VALID,17.2525,VALID,88,VALID,0.740748,
2003-05-23, 01:43:00,VALID,917.815,VALID,0,VALID,100,VALID,0.0509425,VALID,17.2269,VALID,72,VALID,0.602764,
2003-05-23, 01:44:00,VALID,917.805,VALID,0,VALID,100,VALID,0.0509425,VALID,17.2108,VALID,93,VALID,0.822316,
2003-05-23, 01:45:00,VALID,917.784,VALID,0,VALID,100,VALID,0.0679233,VALID,17.2075,VALID,141,VALID,0.669341,
2003-05-23, 01:46:00,VALID,917.763,VALID,0,VALID,100,VALID,0.0679233,VALID,17.2011,VALID,126,VALID,1.0259,
2003-05-23, 01:47:00,VALID,917.757,VALID,0,VALID,100,VALID,0.0849042,VALID,17.2138,VALID,106,VALID,1.1893,
2003-05-23, 01:48:00,VALID,917.735,VALID,0,VALID,100,VALID,0.0849042,VALID,17.2267,VALID,100,VALID,0.747596,
2003-05-23, 01:49:00,VALID,917.708,VALID,0,VALID,100,VALID,0.0849042,VALID,17.2103,VALID,114,VALID,0.858226,
2003-05-23, 01:50:00,VALID,917.688,VALID,0,VALID,100,VALID,0.0679233,VALID,17.1912,VALID,119,VALID,0.716694,
2003-05-23, 01:51:00,VALID,917.669,VALID,0,VALID,100,VALID,0.0679233,VALID,17.169,VALID,106,VALID,0.747466,
2003-05-23, 01:52:00,VALID,917.66,VALID,0,VALID,100,VALID,0.0339617,VALID,17.1361,VALID,124,VALID,1.42209,
2003-05-23, 01:53:00,VALID,917.632,VALID,0,VALID,100,VALID,0.0849042,VALID,17.146,VALID,129,VALID,1.42448,
2003-05-23, 01:54:00,VALID,917.622,VALID,0,VALID,100,VALID,0.0679233,VALID,17.1402,VALID,113,VALID,1.42331,
2003-05-23, 01:55:00,VALID,917.606,VALID,0,VALID,100,VALID,0.0339617,VALID,17.1272,VALID,106,VALID,1.16829,
2003-05-23, 01:56:00,VALID,917.58,VALID,0,VALID,100,VALID,0,VALID,17.0799,VALID,113,VALID,0.860937,
2003-05-23, 01:57:00,VALID,917.566,VALID,0,VALID,100,VALID,-0.0679233,VALID,17.0667,VALID,119,VALID,1.09888,
2003-05-23, 01:58:00,VALID,917.552,VALID,0,VALID,100,VALID,-0.0509425,VALID,17.0667,VALID,124,VALID,1.02775,
2003-05-23, 01:59:00,VALID,917.523,VALID,0,VALID,100,VALID,-0.0169808,VALID,17.0637,VALID,104,VALID,0.876603,
2003-05-23, 02:00:00,VALID,917.501,VALID,0,VALID,100,VALID,-0.0169808,VALID,17.0306,VALID,125,VALID,0.627148,
2003-05-23, 02:01:00,VALID,917.479,VALID,0,VALID,100,VALID,-0.0169808,VALID,17.0183,VALID,118,VALID,0.805921,
2003-05-23, 02:02:00,VALID,917.444,VALID,0,VALID,100,VALID,0,VALID,17.0248,VALID,115,VALID,0.958193,
2003-05-23, 02:03:00,VALID,917.441,VALID,0,VALID,100,VALID,-0.0509425,VALID,17.0017,VALID,109,VALID,0.945513,
2003-05-23, 02:04:00,VALID,917.431,VALID,0,VALID,100,VALID,-0.0339617,VALID,16.9888,VALID,112,VALID,0.945313,
2003-05-23, 02:05:00,VALID,917.432,VALID,0,VALID,100,VALID,-0.0339617,VALID,16.98,VALID,111,VALID,0.601563,
2003-05-23, 02:06:00,VALID,917.428,VALID,0,VALID,100,VALID,-0.0849042,VALID,16.9669,VALID,117,VALID,0.833036,
2003-05-23, 02:07:00,VALID,917.42,VALID,0,VALID,100,VALID,-0.0169808,VALID,16.9537,VALID,111,VALID,0.8375,
2003-05-23, 02:08:00,VALID,917.398,VALID,0,VALID,99.9977,VALID,-0.0509425,VALID,16.9283,VALID,114,VALID,0.94553,
2003-05-23, 02:09:00,VALID,917.391,VALID,0,VALID,99.9916,VALID,-0.0339617,VALID,16.9156,VALID,111,VALID,1.2079,
2003-05-23, 02:10:00,VALID,917.373,VALID,0,VALID,99.9723,VALID,0,VALID,16.8857,VALID,95,VALID,1.24726,
2003-05-23, 02:11:00,VALID,917.371,VALID,0,VALID,99.9468,VALID,0.101885,VALID,16.8917,VALID,90,VALID,1.03146,
2003-05-23, 02:12:00,VALID,917.36,VALID,0,VALID,99.9303,VALID,0.0509425,VALID,16.882,VALID,98,VALID,1.14886,
2003-05-23, 02:13:00,VALID,917.34,VALID,0,VALID,99.9112,VALID,0.0339617,VALID,16.8689,VALID,87,VALID,1.0019,
2003-05-23, 02:14:00,VALID,917.331,VALID,0,VALID,99.8616,VALID,0.0849042,VALID,16.85,VALID,95,VALID,1.15692,
2003-05-23, 02:15:00,VALID,917.316,VALID,0,VALID,99.8044,VALID,0.0849042,VALID,16.8203,VALID,87,VALID,1.1984,
2003-05-23, 02:16:00,VALID,917.316,VALID,0,VALID,99.7587,VALID,0.0679233,VALID,16.7944,VALID,109,VALID,1.46242,
2003-05-23, 02:17:00,VALID,917.309,VALID,0,VALID,99.7256,VALID,0.0509425,VALID,16.7912,VALID,112,VALID,0.838605,
2003-05-23, 02:18:00,VALID,917.317,VALID,0,VALID,99.6862,VALID,0.0849042,VALID,16.7753,VALID,114,VALID,1.15762,
2003-05-23, 02:19:00,VALID,917.307,VALID,0,VALID,99.7345,VALID,0.0679233,VALID,16.7757,VALID,131,VALID,1.08203,
2003-05-23, 02:20:00,VALID,917.285,VALID,0,VALID,99.7332,VALID,0.0509425,VALID,16.7882,VALID,128,VALID,1.33347,
2003-05-23, 02:21:00,VALID,917.268,VALID,0,VALID,99.7205,VALID,0.0339617,VALID,16.7951,VALID,124,VALID,1.32109,
2003-05-23, 02:22:00,VALID,917.24,VALID,0,VALID,99.7002,VALID,-0.0339617,VALID,16.7929,VALID,108,VALID,0.814103,
2003-05-23, 02:23:00,VALID,917.22,VALID,0,VALID,99.6951,VALID,-0.0679233,VALID,16.7669,VALID,119,VALID,1.01451,
2003-05-23, 02:24:00,VALID,917.197,VALID,0,VALID,99.6569,VALID,-0.0339617,VALID,16.76,VALID,123,VALID,1.34609,
2003-05-23, 02:25:00,VALID,917.192,VALID,0,VALID,99.6468,VALID,-0.0169808,VALID,16.7471,VALID,107,VALID,1.11936,
2003-05-23, 02:26:00,VALID,917.18,VALID,0,VALID,99.5514,VALID,0,VALID,16.7539,VALID,115,VALID,1.27257,
2003-05-23, 02:27:00,VALID,917.186,VALID,0,VALID,99.5832,VALID,-0.0339617,VALID,16.7544,VALID,109,VALID,1.14704,
2003-05-23, 02:28:00,VALID,917.182,VALID,0,VALID,99.4293,VALID,-0.0509425,VALID,16.7541,VALID,79,VALID,0.712788,
2003-05-23, 02:29:00,VALID,917.185,VALID,0,VALID,99.339,VALID,-0.0339617,VALID,16.7221,VALID,103,VALID,1.04626,
2003-05-23, 02:30:00,VALID,917.189,VALID,0,VALID,99.3263,VALID,-0.0339617,VALID,16.7249,VALID,100,VALID,0.86022,
2003-05-23, 02:31:00,VALID,917.187,VALID,0,VALID,99.1941,VALID,-0.0339617,VALID,16.7223,VALID,88,VALID,0.794488,
2003-05-23, 02:32:00,VALID,917.171,VALID,0,VALID,99.1292,VALID,-0.0679233,VALID,16.7124,VALID,94,VALID,1.09206,
2003-05-23, 02:33:00,VALID,917.171,VALID,0,VALID,98.9436,VALID,-0.0849042,VALID,16.7318,VALID,73,VALID,0.98602,
2003-05-23, 02:34:00,VALID,917.172,VALID,0,VALID,98.7871,VALID,-0.0679233,VALID,16.719,VALID,79,VALID,0.977564,
2003-05-23, 02:35:00,VALID,917.191,VALID,0,VALID,98.6435,VALID,-0.0509425,VALID,16.6995,VALID,77,VALID,0.821715,
2003-05-23, 02:36:00,VALID,917.178,VALID,0,VALID,98.5099,VALID,-0.0679233,VALID,16.687,VALID,79,VALID,0.862965,
2003-05-23, 02:37:00,VALID,917.191,VALID,0,VALID,98.4006,VALID,-0.0679233,VALID,16.6577,VALID,89,VALID,0.939145,
2003-05-23, 02:38:00,VALID,917.187,VALID,0,VALID,98.4095,VALID,-0.0509425,VALID,16.6646,VALID,86,VALID,0.741386,
2003-05-23, 02:39:00,VALID,917.172,VALID,0,VALID,98.2912,VALID,-0.0849042,VALID,16.6676,VALID,88,VALID,0.672676,
2003-05-23, 02:40:00,VALID,917.166,VALID,0,VALID,98.2683,VALID,0,VALID,16.6446,VALID,107,VALID,0.809283,
2003-05-23, 02:41:00,VALID,917.155,VALID,0,VALID,98.2098,VALID,0.0679233,VALID,16.647,VALID,61,VALID,0.426398,
2003-05-23, 02:42:00,VALID,917.162,VALID,0,VALID,98.2022,VALID,0.0169808,VALID,16.6177,VALID,96,VALID,0.565878,
2003-05-23, 02:43:00,VALID,917.16,VALID,0,VALID,98.0649,VALID,0.0169808,VALID,16.5854,VALID,67,VALID,0.543403,
2003-05-23, 02:44:00,VALID,917.17,VALID,0,VALID,97.9453,VALID,0.0339617,VALID,16.5432,VALID,67,VALID,0.762153,
2003-05-23, 02:45:00,VALID,917.183,VALID,0,VALID,97.8525,VALID,0.0339617,VALID,16.5051,VALID,68,VALID,0.922492,
2003-05-23, 02:46:00,VALID,917.188,VALID,0,VALID,97.7877,VALID,0.0339617,VALID,16.4692,VALID,74,VALID,1.05131,
2003-05-23, 02:47:00,VALID,917.194,VALID,0,VALID,97.9466,VALID,0.0509425,VALID,16.4431,VALID,76,VALID,1.23438,
2003-05-23, 02:48:00,VALID,917.187,VALID,0,VALID,97.9987,VALID,0,VALID,16.4403,VALID,69,VALID,1.23571,
2003-05-23, 02:49:00,VALID,917.188,VALID,0,VALID,97.8996,VALID,0.0509425,VALID,16.4211,VALID,89,VALID,0.981497,
2003-05-23, 02:50:00,VALID,917.19,VALID,0,VALID,98.089,VALID,0.0339617,VALID,16.408,VALID,92,VALID,1.02103,
2003-05-23, 02:51:00,VALID,917.186,VALID,0,VALID,98.2632,VALID,0.0169808,VALID,16.4179,VALID,94,VALID,1.03027,
2003-05-23, 02:52:00,VALID,917.183,VALID,0,VALID,98.3637,VALID,0.0339617,VALID,16.4437,VALID,96,VALID,0.693462,
2003-05-23, 02:53:00,VALID,917.177,VALID,0,VALID,98.3141,VALID,0.0339617,VALID,16.4661,VALID,111,VALID,1.13421,
2003-05-23, 02:54:00,VALID,917.201,VALID,0,VALID,98.2264,VALID,0.0169808,VALID,16.4825,VALID,112,VALID,1.09355,
2003-05-23, 02:55:00,VALID,917.204,VALID,0,VALID,98.0026,VALID,0.0339617,VALID,16.4793,VALID,92,VALID,0.622796,
2003-05-23, 02:56:00,VALID,917.202,VALID,0,VALID,97.7559,VALID,0,VALID,16.4698,VALID,79,VALID,0.882011,
2003-05-23, 02:57:00,VALID,917.193,VALID,0,VALID,97.6185,VALID,0,VALID,16.4379,VALID,87,VALID,1.02433,
2003-05-23, 02:58:00,VALID,917.205,VALID,0,VALID,97.6808,VALID,0.0169808,VALID,16.4183,VALID,85,VALID,1.0375,
2003-05-23, 02:59:00,VALID,917.209,VALID,0,VALID,97.7203,VALID,0,VALID,16.4216,VALID,87,VALID,0.921224,
2003-05-23, 03:00:00,VALID,917.224,VALID,0,VALID,97.7343,VALID,0,VALID,16.4115,VALID,86,VALID,1.0013,
2003-05-23, 03:01:00,VALID,917.236,VALID,0,VALID,97.7571,VALID,0.0169808,VALID,16.4084,VALID,83,VALID,1.02513,
2003-05-23, 03:02:00,VALID,917.242,VALID,0,VALID,97.8436,VALID,0.0339617,VALID,16.4343,VALID,89,VALID,1.26172,
2003-05-23, 03:03:00,VALID,917.242,VALID,0,VALID,97.5372,VALID,0,VALID,16.444,VALID,88,VALID,1.05891,
2003-05-23, 03:04:00,VALID,917.245,VALID,0,VALID,97.3579,VALID,0.0339617,VALID,16.4437,VALID,103,VALID,1.30828,
2003-05-23, 03:05:00,VALID,917.221,VALID,0,VALID,97.5359,VALID,0.0339617,VALID,16.4795,VALID,84,VALID,1.48929,
2003-05-23, 03:06:00,VALID,917.21,VALID,0,VALID,97.3261,VALID,0.0339617,VALID,16.5247,VALID,69,VALID,1.41201,
2003-05-23, 03:07:00,VALID,917.204,VALID,0,VALID,96.8352,VALID,0.0509425,VALID,16.5275,VALID,98,VALID,0.961993,
2003-05-23, 03:08:00,VALID,917.206,VALID,0,VALID,96.853,VALID,0.0169808,VALID,16.5021,VALID,89,VALID,1.44436,
2003-05-23, 03:09:00,VALID,917.19,VALID,0,VALID,96.5746,VALID,0.0509425,VALID,16.5184,VALID,72,VALID,1.29648,
2003-05-23, 03:10:00,VALID,917.193,VALID,0,VALID,96.8378,VALID,0.0339617,VALID,16.5542,VALID,102,VALID,1.26439,
2003-05-23, 03:11:00,VALID,916.78,VALID,0,VALID,96.9001,VALID,0.0679233,VALID,16.6056,VALID,81,VALID,1.32792,
2003-05-23, 03:12:00,VALID,917.19,VALID,0,VALID,96.53,VALID,0.0509425,VALID,16.6056,VALID,98,VALID,1.18301,
2003-05-23, 03:13:00,VALID,917.195,VALID,0,VALID,96.5479,VALID,0.0849042,VALID,16.6088,VALID,108,VALID,1.38041,
2003-05-23, 03:14:00,VALID,917.198,VALID,0,VALID,96.483,VALID,0.0679233,VALID,16.6254,VALID,107,VALID,1.28371,
2003-05-23, 03:15:00,VALID,917.18,VALID,0,VALID,96.3037,VALID,0.0679233,VALID,16.6119,VALID,99,VALID,1.05684,
2003-05-23, 03:16:00,VALID,917.179,VALID,0,VALID,96.3406,VALID,0.0339617,VALID,16.6116,VALID,104,VALID,1.35373,
2003-05-23, 03:17:00,VALID,917.182,VALID,0,VALID,96.4677,VALID,0.0849042,VALID,16.6215,VALID,105,VALID,1.4362,
2003-05-23, 03:18:00,VALID,917.186,VALID,0,VALID,96.3368,VALID,0.0679233,VALID,16.6183,VALID,90,VALID,1.04908,
2003-05-23, 03:19:00,VALID,917.18,VALID,0,VALID,96.2185,VALID,0.0169808,VALID,16.5921,VALID,97,VALID,1.51727,
2003-05-23, 03:20:00,VALID,917.165,VALID,0,VALID,96.1536,VALID,0.0509425,VALID,16.5703,VALID,103,VALID,1.47656,
2003-05-23, 03:21:00,VALID,917.182,VALID,0,VALID,96.3864,VALID,0.0849042,VALID,16.5376,VALID,99,VALID,1.46432,
2003-05-23, 03:22:00,VALID,917.18,VALID,0,VALID,96.3253,VALID,0.0509425,VALID,16.5574,VALID,90,VALID,1.3125,
2003-05-23, 03:23:00,VALID,917.183,VALID,0,VALID,96.0265,VALID,0.0169808,VALID,16.5507,VALID,93,VALID,1.34438,
2003-05-23, 03:24:00,VALID,917.195,VALID,0,VALID,95.9273,VALID,0.0339617,VALID,16.5309,VALID,100,VALID,1.25699,
2003-05-23, 03:25:00,VALID,917.214,VALID,0,VALID,95.8205,VALID,0.0509425,VALID,16.5318,VALID,121,VALID,1.53486,
2003-05-23, 03:26:00,VALID,917.22,VALID,0,VALID,95.7811,VALID,-0.0339617,VALID,16.4967,VALID,111,VALID,1.6234,
2003-05-23, 03:27:00,VALID,917.219,VALID,0,VALID,95.8523,VALID,-0.0169808,VALID,16.5065,VALID,109,VALID,1.47635,
2003-05-23, 03:28:00,VALID,917.228,VALID,0,VALID,95.8764,VALID,-0.0509425,VALID,16.5164,VALID,105,VALID,1.32874,
2003-05-23, 03:29:00,VALID,917.238,VALID,0,VALID,95.996,VALID,-0.0339617,VALID,16.5195,VALID,98,VALID,1.27424,
2003-05-23, 03:30:00,VALID,917.235,VALID,0,VALID,95.8561,VALID,-0.0849042,VALID,16.5065,VALID,112,VALID,1.3155,
2003-05-23, 03:31:00,VALID,917.259,VALID,0,VALID,95.8828,VALID,0,VALID,16.4969,VALID,121,VALID,1.30285,
2003-05-23, 03:32:00,VALID,917.284,VALID,0,VALID,95.8637,VALID,-0.0509425,VALID,16.4644,VALID,125,VALID,1.44058,
2003-05-23, 03:33:00,VALID,917.309,VALID,0,VALID,95.8485,VALID,0,VALID,16.4387,VALID,128,VALID,1.50253,
2003-05-23, 03:34:00,VALID,917.308,VALID,0,VALID,96.0087,VALID,-0.0679233,VALID,16.4161,VALID,122,VALID,1.40625,
2003-05-23, 03:35:00,VALID,917.296,VALID,0,VALID,96.099,VALID,-0.0169808,VALID,16.3905,VALID,110,VALID,1.45725,
2003-05-23, 03:36:00,VALID,917.301,VALID,0,VALID,96.2439,VALID,-0.0339617,VALID,16.3483,VALID,103,VALID,1.43956,